Location: Blazny
(46.0612°N, 84.4033°W)
Time: 09:04:22
(UTC-04:00)

ARIANE 6 FM1 Upper Stage - Pass Details

Date: 21 September 2024
Orbit: 564 x 594 km, 62.0° (Epoch: 03 October)

Event Time Altitude Azimuth Distance (km) Brightness Sun altitude
Rises 20:42:50 0° 200° (SSW) 2,768 6.3 -12.3°
Reaches altitude 10° 20:45:08 10° 193° (SSW) 1,879 5.3 -12.7°
Maximum altitude 20:49:07 40° 123° (ESE) 855 3.1 -13.4°
Drops below altitude 10° 20:53:10 10° 54° (NE) 1,911 5.0 -14.1°
Enters shadow 20:53:18 - 53° (NE) 1,961 5.1 -14.1°
